[[{"header":{"parameterUnit":"m.s-1","parameterCategory":1,"la1":30.2991,"la2":30.254,"lo1":-89.0895,"lo2":-89.0444,"dy":0.0017,"dx":0.0017,"nx":28,"ny":28,"refTime":"2025-04-22T21:00:00:Z","depth":0,"parameterNumber":2,"parameterNumberName":"U-component_of_WINDS"},"data":[0,0,0,0,0,0,0,0,0,0,0,0,0,0,0,0,0,0,0,0,0,0,0,0,0,0,0,0,0,0,0,0,0,0,0,0,0,0,0,0,0,0,0,0,0,0,0,0,0,0,0,0,0,0,0,0,0,0,-0.0058,-0.0058,0,-0.0078,-0.0078,-0.0078,-0.0081,-0.0081,-0.0081,-0.0081,-0.0103,-0.0103,-0.0104,0,0,0,0,0,0,0,0,0,0,0,0,0,-0.0026,-0.0027,-0.0058,-0.0058,-0.0058,-0.0077,-0.0078,-0.0078,-0.0081,-0.0081,-0.0081,-0.0081,-0.0103,-0.0103,-0.0104,0,0,0,0,0,0,0,0,0,0,0,0,0,-0.0042,-0.0027,-0.0058,-0.0062,-0.0063,-0.0077,-0.0078,-0.0078,-0.0081,-0.0081,-0.0081,-0.0081,-0.0102,-0.0103,-0.0104,-0.0117,0,0,-0.0108,-0.0108,0,0,0,0,0,0,0,0,-0.0042,-0.0044,-0.0061,-0.0062,-0.0063,-0.0077,-0.0075,-0.0091,-0.0081,-0.0074,-0.0081,-0.008,-0.0094,-0.0096,-0.01,-0.0118,-0.0119,-0.0108,-0.0109,-0.0109,-0.0109,0,0,0,0,0,0,0,-0.004,-0.0043,-0.0066,-0.0062,-0.0063,-0.0064,-0.0066,-0.0078,-0.0086,-0.0075,-0.0075,-0.0077,-0.0095,-0.0099,-0.0101,-0.0119,-0.0108,-0.0109,-0.011,-0.011,-0.0149,-0.0149,0,0,0,0,0,0,-0.0038,-0.0042,-0.0065,-0.0066,-0.0051,-0.0065,-0.0067,-0.0072,-0.0086,-0.0087,-0.0078,-0.0077,-0.0098,-0.01,-0.0102,-0.0118,-0.0109,-0.011,-0.0111,-0.0148,-0.0149,-0.0149,0,0,0,0,0,0,-0.0037,-0.004,-0.0064,-0.0054,-0.0057,-0.0066,-0.0072,-0.0073,-0.0078,-0.0088,-0.0089,-0.0081,-0.0097,-0.01,-0.0113,-0.0119,-0.0111,-0.0112,-0.0148,-0.0149,-0.0149,-0.015,0,0,0,0,0,0,-0.0037,-0.004,-0.0044,-0.0054,-0.0058,-0.0074,-0.0072,-0.0074,-0.0079,-0.0079,-0.0091,-0.0093,-0.0097,-0.0111,-0.0114,-0.012,-0.0113,-0.0148,-0.0148,-0.0149,-0.0149,-0.015,-0.0151,0,0,0,0,0,-0.0035,-0.0043,-0.0044,-0.0047,-0.0063,-0.0075,-0.0077,-0.0082,-0.008,-0.0084,-0.0091,-0.0092,-0.0118,-0.0113,-0.0116,-0.0122,-0.0147,-0.0148,-0.0149,-0.0149,-0.015,-0.0151,0,0,0,0,0,0,-0.0034,-0.0045,-0.0046,-0.0057,-0.0065,-0.0075,-0.0081,-0.0083,-0.0092,-0.0092,-0.0098,-0.0101,-0.0113,-0.0119,-0.0113,-0.0136,-0.0132,-0.0134,-0.0131,-0.0133,-0.0133,-0.0132,-0.0113,0,0,0,0,0,-0.0035,-0.0043,-0.0052,-0.0061,-0.0065,-0.0072,-0.0078,-0.0081,-0.009,-0.0093,-0.0101,-0.011,-0.012,-0.0126,-0.0136,-0.015,-0.0153,-0.0156,-0.0157,-0.0158,-0.0159,-0.0168,-0.017,-0.0152,-0.0152,-0.0152,0,0,-0.0037,-0.0044,-0.0048,-0.0061,-0.0068,-0.0077,-0.0075,-0.0085,-0.0092,-0.0095,-0.0107,-0.0113,-0.0124,-0.0138,-0.0144,-0.0143,-0.0165,-0.0159,-0.0159,-0.016,-0.0169,-0.0171,-0.0173,-0.0152,-0.0152,-0.0152,0,0,-0.0045,-0.0051,-0.006,-0.0066,-0.0076,-0.0081,-0.0083,-0.0094,-0.0098,-0.011,-0.0113,-0.0122,-0.0139,-0.0147,-0.0153,-0.0166,-0.0169,-0.0169,-0.0174,-0.0183,-0.0185,-0.0186,-0.0192,-0.0194,-0.0171,-0.0171,-0.0171,0,-0.0047,-0.006,-0.0064,-0.0074,-0.008,-0.0083,-0.0092,-0.0099,-0.0112,-0.0116,-0.0115,-0.0137,-0.0144,-0.0161,-0.0164,-0.0168,-0.0172,-0.0168,-0.0184,-0.0186,-0.0187,-0.0193,-0.0195,-0.0171,-0.0171,-0.0171,-0.0171,0,-0.0062,-0.0071,-0.0077,-0.0089,-0.0096,-0.0105,-0.0112,-0.0119,-0.0122,-0.0127,-0.0141,-0.015,-0.0163,-0.0167,-0.017,-0.0184,-0.0183,-0.0183,-0.018,-0.0189,-0.0194,-0.0196,-0.0171,-0.0171,-0.0171,-0.0171,0,0,-0.0069,-0.0084,-0.0086,-0.0093,-0.0104,-0.0112,-0.0122,-0.0134,-0.014,-0.0149,-0.0159,-0.0174,-0.0174,-0.0181,-0.0185,-0.0193,-0.0204,-0.0191,-0.0192,-0.0195,-0.0222,-0.0223,-0.0226,-0.0205,-0.0206,-0.0206,-0.0222,0,-0.008,-0.0098,-0.0103,-0.0118,-0.0127,-0.0131,-0.014,-0.0149,-0.0155,-0.0165,-0.0171,-0.0182,-0.0181,-0.0185,-0.0193,-0.0201,-0.021,-0.02,-0.0216,-0.0216,-0.0214,-0.0228,-0.0229,-0.0243,-0.0224,-0.0224,-0.0225,0,-0.0094,-0.0104,-0.012,-0.0131,-0.0136,-0.0144,-0.0156,-0.0164,-0.0175,-0.0179,-0.0187,-0.0191,-0.0204,-0.02,-0.0218,-0.0211,-0.0218,-0.0223,-0.0224,-0.0226,-0.0221,-0.0232,-0.0248,-0.025,-0.0228,-0.0227,-0.0227,0,-0.01,-0.0116,-0.0128,-0.0133,-0.0147,-0.0153,-0.0159,-0.0169,-0.0176,-0.0187,-0.0192,-0.0204,-0.0211,-0.0221,-0.0229,-0.0225,-0.0247,-0.0243,-0.0252,-0.0251,-0.0256,-0.0256,-0.0274,-0.0259,-0.0259,-0.0259,-0.0259,0,-0.0111,-0.0121,-0.0131,-0.0139,-0.0151,-0.0157,-0.0169,-0.0175,-0.0185,-0.0195,-0.0199,-0.0208,-0.0217,-0.0228,-0.0234,-0.0249,-0.0252,-0.0256,-0.0258,-0.0257,-0.0256,-0.0262,-0.0261,-0.026,-0.026,-0.026,-0.0259,0,-0.0119,-0.0126,-0.0139,-0.0151,-0.0155,-0.0163,-0.0174,-0.0182,-0.0188,-0.0201,-0.0205,-0.0215,-0.0228,-0.0237,-0.0254,-0.0258,-0.0275,-0.0275,-0.0271,-0.0272,-0.028,-0.028,-0.0304,-0.0308,-0.0289,-0.0289,-0.0289,0,-0.0126,-0.0134,-0.0147,-0.0154,-0.016,-0.017,-0.0178,-0.0185,-0.0192,-0.0206,-0.0213,-0.0227,-0.0238,-0.026,-0.0269,-0.0283,-0.0285,-0.0292,-0.0287,-0.0286,-0.0286,-0.0286,-0.0288,-0.0293,-0.0293,-0.0294,-0.0294,0,-0.0139,-0.0142,-0.0152,-0.0164,-0.0172,-0.0182,-0.0192,-0.0197,-0.0206,-0.0215,-0.0229,-0.0237,-0.0255,-0.0269,-0.0284,-0.0292,-0.0295,-0.0295,-0.0298,-0.0297,-0.0295,-0.0297,-0.0274,-0.0295,-0.0295,-0.0295,-0.0295,-0.0295,-0.0147,-0.0155,-0.0165,-0.0177,-0.0185,-0.0195,-0.0203,-0.0211,-0.0222,-0.0237,-0.024,-0.0255,-0.0267,-0.0287,-0.0295,-0.0308,-0.0307,-0.0311,-0.0312,-0.0313,-0.0314,-0.0292,-0.0311,-0.0311,-0.0311,-0.0311,-0.0311,0,-0.0161,-0.0168,-0.0179,-0.0192,-0.0202,-0.0203,-0.0215,-0.0223,-0.0235,-0.0246,-0.0257,-0.0274,-0.0288,-0.0299,-0.0314,-0.0322,-0.0324,-0.0326,-0.0326,-0.0328,-0.0313,-0.031,-0.0324,-0.0324,-0.0324,-0.0324,-0.0324,-0.0324,-0.0169,-0.0183,-0.0187,-0.0206,-0.0213,-0.0227,-0.0234,-0.0243,-0.0252,-0.027,-0.0282,-0.0288,-0.03,-0.0316,-0.033,-0.0333,-0.0339,-0.034,-0.0344,-0.033,-0.0329,-0.0327,-0.0324,-0.0341,-0.0341,-0.0358,-0.0358,-0.0358]},{"header":{"parameterUnit":"m.s-1","parameterCategory":1,"la1":30.2991,"la2":30.254,"lo1":-89.0895,"lo2":-89.0444,"dy":0.0017,"dx":0.0017,"nx":28,"ny":28,"refTime":"2025-04-22T21:00:00:Z","depth":0,"parameterNumber":3,"parameterNumberName":"V-component_of_WINDS"},"data":[0,0,0,0,0,0,0,0,0,0,0,0,0,0,0,0,0,0,0,0,0,0,0,0,0,0,0,0,0,0,0,0,0,0,0,0,0,0,0,0,0,0,0,0,0,0,0,0,0,0,0,0,0,0,0,0,0,0,3.9317,3.9317,0,3.9354,3.9354,3.9355,3.931,3.9308,3.9306,3.9305,3.934,3.9342,3.9344,0,0,0,0,0,0,0,0,0,0,0,0,0,3.9203,3.9206,3.9317,3.9317,3.9318,3.9354,3.9354,3.9355,3.931,3.9308,3.9306,3.9304,3.9339,3.9342,3.9345,0,0,0,0,0,0,0,0,0,0,0,0,0,3.9248,3.9207,3.9317,3.93,3.9299,3.9354,3.9354,3.9355,3.931,3.9308,3.9305,3.9303,3.9338,3.9341,3.9345,3.9417,0,0,3.9356,3.9358,0,0,0,0,0,0,0,0,3.9245,3.9252,3.9302,3.9301,3.93,3.9325,3.9327,3.9376,3.9311,3.9306,3.9305,3.9302,3.9336,3.934,3.9352,3.9419,3.942,3.9357,3.9359,3.9361,3.9362,0,0,0,0,0,0,0,3.9242,3.925,3.9331,3.9303,3.9302,3.9289,3.9293,3.9336,3.9334,3.9306,3.9303,3.9308,3.9335,3.9349,3.9353,3.9421,3.9357,3.936,3.9362,3.9364,3.9547,3.9549,0,0,0,0,0,0,3.9242,3.9248,3.933,3.9332,3.9266,3.9293,3.9297,3.9319,3.9334,3.9334,3.931,3.9306,3.9344,3.9349,3.9354,3.9438,3.936,3.9364,3.9366,3.9544,3.9547,3.955,0,0,0,0,0,0,3.9239,3.925,3.9329,3.9289,3.9298,3.9298,3.9323,3.9321,3.9335,3.9337,3.9336,3.9325,3.9342,3.9349,3.9402,3.9439,3.9366,3.9369,3.9541,3.9545,3.9549,3.9608,0,0,0,0,0,0,3.9236,3.9249,3.9278,3.929,3.9301,3.9377,3.9325,3.9324,3.9342,3.9336,3.935,3.935,3.9341,3.9396,3.9405,3.9443,3.9372,3.9538,3.9543,3.9547,3.9603,3.9614,3.9623,0,0,0,0,0,3.9233,3.9293,3.9279,3.9289,3.9337,3.938,3.9385,3.9374,3.9345,3.9373,3.9374,3.935,3.9434,3.9402,3.9412,3.9451,3.9535,3.9541,3.9547,3.9599,3.9612,3.9623,0,0,0,0,0,0,3.9283,3.9294,3.9279,3.9346,3.9362,3.9372,3.9407,3.9389,3.9413,3.9407,3.9391,3.9394,3.9451,3.9456,3.9421,3.9521,3.9479,3.9487,3.9515,3.9528,3.9538,3.9535,3.9375,0,0,0,0,0,3.9303,3.9338,3.9345,3.9402,3.9411,3.9408,3.9426,3.9416,3.9432,3.9438,3.9444,3.9459,3.9489,3.9509,3.9536,3.9604,3.9605,3.9635,3.9645,3.9653,3.966,3.9695,3.9708,3.957,3.957,3.957,0,0,3.9342,3.9352,3.9375,3.9413,3.9424,3.946,3.9414,3.9454,3.9479,3.9444,3.9494,3.9499,3.9515,3.9575,3.9602,3.9581,3.9699,3.9661,3.9668,3.967,3.9703,3.9716,3.9727,3.9574,3.9573,3.9572,0,0,3.9432,3.9444,3.9493,3.9505,3.9523,3.952,3.9532,3.9545,3.9546,3.9597,3.9571,3.96,3.9652,3.9664,3.9677,3.977,3.9749,3.978,3.9832,3.9866,3.9877,3.9886,3.9918,3.993,3.9787,3.9787,3.9787,0,3.9478,3.9532,3.952,3.9561,3.9577,3.9548,3.9596,3.9608,3.9635,3.9646,3.9623,3.9686,3.9695,3.9757,3.978,3.9792,3.9803,3.9778,3.9877,3.9886,3.9895,3.9925,3.9937,3.9791,3.979,3.979,3.9789,0,3.9587,3.9625,3.9662,3.9688,3.9709,3.9754,3.9746,3.9769,3.9756,3.9755,3.9806,3.9816,3.9844,3.9858,3.9846,3.9918,3.9904,3.9879,3.9837,3.9912,3.994,3.9951,3.9796,3.9794,3.9793,3.9792,0,0,3.9711,3.973,3.9743,3.9754,3.9772,3.98,3.9842,3.987,3.9889,3.9908,3.9942,3.9986,3.9962,3.9977,3.9966,3.9996,4.0068,3.9967,3.9967,3.9984,4.0146,4.0164,4.0178,4.0053,4.0056,4.0057,4.0144,0,3.98,3.9875,3.9864,3.9936,3.9969,3.9941,3.9977,3.9991,3.9991,4.0018,4.0018,4.0049,4.0016,4.0024,4.0053,4.0053,4.01,4.0047,4.0084,4.0085,4.008,4.0193,4.0213,4.0294,4.0155,4.0157,4.0158,0,3.9915,3.9938,4.0013,4.0024,4.0037,4.0071,4.0095,4.0122,4.0136,4.0134,4.015,4.0133,4.0174,4.0132,4.0187,4.0151,4.0165,4.0168,4.0171,4.0173,4.0126,4.0197,4.032,4.0332,4.0176,4.0174,4.0173,0,3.9996,4.0046,4.0097,4.0107,4.0121,4.0145,4.0152,4.0164,4.0181,4.0202,4.0213,4.0238,4.0252,4.0271,4.0261,4.0231,4.0317,4.0275,4.0315,4.0316,4.0335,4.0333,4.046,4.0345,4.0345,4.0345,4.0345,0,4.0096,4.0143,4.0133,4.0164,4.0215,4.0202,4.0252,4.0255,4.0266,4.0296,4.0273,4.0301,4.0287,4.0314,4.0306,4.0352,4.0359,4.0357,4.0354,4.0359,4.0359,4.0368,4.0361,4.0348,4.0347,4.0347,4.0346,0,4.0196,4.0191,4.0245,4.0254,4.0257,4.0294,4.0301,4.0329,4.0327,4.0365,4.0374,4.037,4.04,4.0393,4.0426,4.042,4.0478,4.0469,4.0474,4.0471,4.0512,4.0508,4.0648,4.0665,4.054,4.0542,4.0543,0,4.026,4.0295,4.0308,4.0327,4.0336,4.0367,4.0384,4.0372,4.039,4.0409,4.0435,4.0463,4.0485,4.0535,4.0535,4.056,4.055,4.0597,4.0554,4.0557,4.055,4.0547,4.055,4.0606,4.0608,4.0609,4.061,0,4.0374,4.037,4.0396,4.0422,4.0444,4.0463,4.048,4.0496,4.0485,4.0507,4.0538,4.0556,4.0589,4.0618,4.064,4.0646,4.0626,4.0623,4.0634,4.0639,4.064,4.0639,4.0497,4.062,4.0619,4.0618,4.0618,4.0617,4.0457,4.0486,4.05,4.053,4.0541,4.0557,4.0584,4.0585,4.0611,4.0638,4.0629,4.0664,4.0676,4.0705,4.0713,4.074,4.0721,4.0737,4.0741,4.0745,4.0749,4.0636,4.0744,4.0743,4.0743,4.0743,4.0743,0,4.0569,4.0576,4.0604,4.0628,4.0651,4.0631,4.0648,4.0669,4.07,4.0714,4.0736,4.0771,4.0798,4.0799,4.0824,4.0845,4.0837,4.0852,4.085,4.0851,4.0765,4.0753,4.0859,4.0859,4.0859,4.0859,4.0859,4.0859,4.063,4.0678,4.0675,4.0728,4.0734,4.077,4.0781,4.0795,4.0805,4.0846,4.0868,4.0869,4.0877,4.0903,4.0926,4.0925,4.0935,4.0954,4.095,4.0869,4.0858,4.0847,4.0835,4.0957,4.0957,4.1035,4.1035,4.1036]}]]